Location: Coupvray
(48.8929°N, 2.7967°E)
Time: 21:13:41
(UTC+00:00)

X-37B - Pass Details

Date: 08 October 2020
Orbit: 382 x 392 km, 45.0° (Epoch: 15 October)

Event Time Altitude Azimuth Distance (km) Brightness Sun altitude
Rises 18:05:28 0° 247° (WSW) 2,266 5.8 -9.5°
Reaches altitude 10° 18:07:38 10° 239° (WSW) 1,411 4.4 -9.9°
Maximum altitude 18:10:35 36° 171° (S) 634 1.5 -10.4°
Enters shadow 18:12:40 16° 110° (ESE) 1,096 2.3 -10.7°
